Voltar ao catálogo

USA 391

AtivoMilitarVLEO
NORAD 60174·PAYLOAD·🇺🇸 United States

Lançado Jun 29, 2024 de Vandenberg Space Force Base

Loading…

Próximas Passagens (próximas 24 horas)

TLE

ObsoletoSource: Mike McCants

Época: Aug 15, 2024, 20:31 UTC

1 60174U 24121S   24228.85535693 0.00000000  00000-0  00000-0 0    03
2 60174  70.0000 272.2608 0001000 329.4395  30.5604 14.96715000    01

Acompanhe USA 391 em tempo real com AllMySat

Download on the App Store